Regional Weather Roundup
Issued by NWS

Home | Current Version | Previous Version | Graphics & Text | Print | Product List | Glossary On
Versions: 1 2 3 4 5 6 7 8 9 10 11 12 13 14 15 16 17 18 19 20 21 22 23 24 25 26 27 28 29 30 31 32 33 34 35 36 37 38 39 40 41 42 43 44 45 46 47 48 49 50
000
ASUS43 KLSX 240107
RWRMO

WEATHER SUMMARY FOR MISSOURI
NATIONAL WEATHER SERVICE SPRINGFIELD MO
700 PM CST THU FEB 23 2017

NOTE: "FAIR" INDICATES FEW OR NO CLOUDS BELOW 12,000 FEET WITH NO
       SIGNIFICANT WEATHER AND/OR OBSTRUCTIONS TO VISIBILITY.
       CURRENT SKY AND/OR WEATHER CONDITIONS ARE NOT AVAILABLE FOR
       CHILLICOTHE AND FARMINGTON.

MOZ001>031-035>038-043-044-053-054-240200-
...NORTHERN AND WESTERN MISSOURI...

CITY           SKY/WX    TMP DP  RH WIND       PRES   REMARKS
KANSAS CTY INT CLEAR     50  44  80 NE12      29.44R
KANSAS C DTWN  CLEAR     52  45  77 NE10      29.42S
LEE`S SUMMIT   PTCLDY    52  47  83 NE12      29.43R
ST JOSEPH      PTCLDY    47  44  90 NE12      29.48R
CHILLICOTHE      N/A     50  46  86 N9        29.50F
KIRKSVILLE     CLOUDY    50  47  89 NE9       29.52S

$$
MOZ066>068-077>081-088>096-101>105-240200-
...SOUTHWEST MISSOURI...

CITY           SKY/WX    TMP DP  RH WIND       PRES   REMARKS
SPRINGFIELD    PTCLDY    72  50  45 S15       29.44R
JOPLIN         CLOUDY    78  45  30 S17       29.39R
BRANSON        MOCLDY    72  48  43 S17G29    29.50S

$$
MOZ032>034-039>042-045>050-055>058-069>072-240200-
...CENTRAL MISSOURI...

CITY           SKY/WX    TMP DP  RH WIND       PRES   REMARKS
COLUMBIA       PTCLDY    64  55  72 E12       29.46S
JEFFERSON CITY CLEAR     65  55  70 E12       29.45S
ROLLA          CLEAR     67  55  65 MISG      29.48S
SEDALIA        PTCLDY    64  55  72 E10       29.43R
WHITEMAN AFB   PTCLDY    65  59  80 E12       29.35F
WARRENSBURG    CLOUDY    59  50  72 NW12      29.42R
OSAGE BEACH    PTCLDY    72  52  49 S9        29.45S

$$
MOZ051-052-059>065-240200-
...EAST CENTRAL MISSOURI...

CITY           SKY/WX    TMP DP  RH WIND       PRES   REMARKS
ST LOUIS INTL  CLOUDY    67  55  65 SE12      29.55F
SPIRIT OF STL  PTCLDY    62  56  80 E6        29.53S
ST CHARLES     CLOUDY    62  57  83 E8        29.54S

$$
MOZ072>076-082>087-097>100-106>115-240200-
...SOUTH CENTRAL AND SOUTHEAST MISSOURI...

CITY           SKY/WX    TMP DP  RH WIND       PRES   REMARKS
CAPE GIRARDEAU PTCLDY    66  54  65 SE13      29.61F
FARMINGTON     PTCLDY    65  56  72 S16       29.57F
POPLAR BLUFF   CLEAR     67  56  67 S14       29.58F
WEST PLAINS    PTCLDY    68  55  63 SE14      29.56S

$$



USA.gov is the U.S. government's official web portal to all federal, state and local government web resources and services.